Location: Unspecified
(44.0704°N, 88.6889°W)
Time: 09:12:49
(UTC+02:00)

Transit 2A - Pass Details

Date: 26 June 2019
Orbit: 594 x 964 km, 66.7° (Epoch: 19 July)

Event Time Altitude Azimuth Distance (km) Brightness Sun altitude
Rises 17:19:55 0° 315° (NW) 3,363 9.0 51.7°
Reaches altitude 10° 17:23:08 10° 298° (WNW) 2,349 8.3 52.3°
Maximum altitude 17:26:43 18° 256° (WSW) 1,750 7.8 52.9°
Drops below altitude 10° 17:30:04 10° 213° (SSW) 2,172 8.4 53.4°
Sets 17:32:54 0° 195° (SSW) 3,017 9.2 53.9°
